sat.trackr.live / text

‹ back to catalog

STARLINK-6326

NORAD 56787 · 2023-078W

PAYLOAD ACTIVE UNKNOWN

§ Identity

Operator
Country
US
Launch date
2023-05-31
Launch site
AFWTR
Launch vehicle
Mass (kg)
RCS (m²)

Purposes: comms

External: N2YO · Heavens-Above · Gunter

§ Orbital elements

Epoch: 2026-05-25T02:45:21.193632Z

Period
96.11 min
Inclination
69.9986°
Eccentricity
0.0003439
Mean motion
14.98319194 rev/d
Perigee alt
569.7 km
Apogee alt
574.5 km
Semi-major
6,950.2 km
B*
4.4226e-5
RAAN
131.6694°
Arg perigee
266.0384°
Mean anomaly
94.0382°
Rev number
16,462

§ Raw data

STARLINK-63261 56787U 23078W   26145.11482863  .00000435  00000+0  44226-4 0  99972 56787  69.9986 131.6694 0003439 266.0384  94.0382 14.98319194164624

JSON: /api/v1/satellites/56787 · /tle

For live sub-satellite position, see the globe view (requires WebGL).

§ Visibility from observer

Set your observer location to see the next 7 days of passes ≥ 10°. The values pass through the URL so the page stays shareable.

No JS? Fill the form by hand. The geolocation button needs JavaScript.